Weather History for Santa Maria, CA

Change the Weather History Date:

Thursday, February 7, 2013

  Actual Average Record
Temperature  
Mean Temperature 48 °F 52 °F  
Max Temperature 58 °F 64 °F 86 °F (1954)
Min Temperature 37 °F 41 °F 28 °F (1929)
Degree Days  
Heating Degree Days 17 13  
Month to date heating degree days 89 91  
Since 1 July heating degree days 1403 1583  
Cooling Degree Days 0 0  
Month to date cooling degree days 0 0  
Year to date cooling degree days 0 0  
Moisture  
Dew Point 42 °F    
Average Humidity 76    
Maximum Humidity 100    
Minimum Humidity 51    
Precipitation  
Precipitation 0.03 in 0.11 in 1.30 in (1998)
Month to date precipitation 0.03 0.73  
Year to date precipitation 0.66 3.48  
Since 1 July precipitation 4.39 7.72  
Sea Level Pressure  
Sea Level Pressure 30.13 in    
Wind  
Wind Speed 7 mph (NNW)    
Max Wind Speed 23 mph    
Max Gust Speed 20 mph    
Visibility 5 miles    
Events Fog , Rain    
T = Trace of Precipitation, MM = Missing Value Source: NWS Daily Summary

Daily Weather History Graph

Daily Weather History Graph

Search for Another Location

Airport:

Trip Planner

Search our weather history database for the weather conditions in past years. The results will help you decide how hot, cold, wet, or windy it might be!

Date:

Astronomy

Feb. 07, 2013 Rise Set
Actual Time 6:55 AM PST 5:37 PM PST
Civil Twilight 6:28 AM PST 6:03 PM PST
Nautical Twilight 5:59 AM PST 6:33 PM PST
Astronomical Twilight 5:29 AM PST 7:02 PM PST
Moon 4:35 AM PST (2/7) 3:10 PM PST (2/7)
Length of Visible Light 11h 34m
Length of Day
10h 42m
Waning Crescent, 8% of the Moon is Illuminated
Feb 7
Waning Crescent
Feb 9
New
Feb 17
First Quarter
Feb 25
Full
Mar 4
Last Quarter

Hourly Weather History & Observations

Time (PST) Temp. Windchill Dew Point Humidity Pressure Visibility Wind Dir Wind Speed Gust Speed Precip Events Conditions
12:06 AM 44.6 °F - 44.6 °F 100% 30.14 in 4.0 mi Calm Calm - N/A   Clear
12:18 AM 42.8 °F - 42.8 °F 100% 30.13 in 1.8 mi Calm Calm - N/A   Partly Cloudy
12:20 AM 41.0 °F - 41.0 °F 100% 30.13 in 1.0 mi Calm Calm - N/A   Mist
12:29 AM 42.8 °F - 41.0 °F 93% 30.13 in 1.8 mi Calm Calm - N/A   Partly Cloudy
12:32 AM 42.8 °F - 42.8 °F 100% 30.13 in 3.0 mi Calm Calm - N/A   Partly Cloudy
12:35 AM 42.8 °F - 42.8 °F 100% 30.13 in 1.5 mi Calm Calm - N/A   Partly Cloudy
12:37 AM 41.0 °F - 41.0 °F 100% 30.13 in 1.0 mi Calm Calm - N/A   Mist
12:47 AM 41.0 °F - 41.0 °F 100% 30.13 in 1.8 mi Calm Calm - N/A   Scattered Clouds
12:51 AM 42.1 °F - 41.0 °F 96% 30.14 in 2.0 mi Calm Calm - N/A   Scattered Clouds
12:53 AM 42.8 °F - 42.8 °F 100% 30.13 in 1.8 mi Calm Calm - N/A   Mostly Cloudy
1:01 AM 42.8 °F - 42.8 °F 100% 30.13 in 0.8 mi Calm Calm - N/A   Mist
1:15 AM 39.2 °F 37.0 °F 39.2 °F 100% 30.13 in 1.8 mi ENE 3.5 mph - N/A   Overcast
1:17 AM 41.0 °F 39.0 °F 39.2 °F 93% 30.13 in 3.0 mi East 3.5 mph - N/A   Overcast
1:51 AM 39.9 °F - 39.0 °F 97% 30.14 in 4.0 mi Calm Calm - N/A   Overcast
2:13 AM 39.2 °F 37.0 °F 39.2 °F 100% 30.13 in 1.8 mi NE 3.5 mph - N/A   Overcast
2:22 AM 39.2 °F 37.0 °F 39.2 °F 100% 30.13 in 1.0 mi ENE 3.5 mph - N/A   Overcast
2:31 AM 39.2 °F 37.0 °F 39.2 °F 100% 30.12 in 2.0 mi East 3.5 mph - N/A   Overcast
2:39 AM 39.2 °F - 39.2 °F 100% 30.13 in 5.0 mi Calm Calm - N/A   Overcast
2:51 AM 41.0 °F - 39.9 °F 96% 30.14 in 3.0 mi Calm Calm - N/A   Overcast
3:00 AM 41.0 °F - 41.0 °F 100% 30.13 in 2.5 mi Calm Calm - N/A   Overcast
3:07 AM 41.0 °F - 41.0 °F 100% 30.13 in 1.2 mi Calm Calm - N/A   Overcast
3:17 AM 41.0 °F - 41.0 °F 100% 30.13 in 0.2 mi Calm Calm - N/A Fog Fog
3:51 AM 41.0 °F - 39.9 °F 96% 30.14 in 0.2 mi Calm Calm - N/A Fog Fog
4:18 AM 42.8 °F - 41.0 °F 93% 30.13 in 0.8 mi Calm Calm - N/A   Mist
4:21 AM 42.8 °F - 41.0 °F 93% 30.13 in 1.5 mi Calm Calm - N/A   Overcast
4:27 AM 42.8 °F - 41.0 °F 93% 30.13 in 0.8 mi Calm Calm - N/A   Mist
4:49 AM 41.0 °F - 41.0 °F 100% 30.13 in 0.2 mi Calm Calm - N/A Fog Fog
4:51 AM 41.0 °F - 41.0 °F 100% 30.14 in 0.2 mi Calm Calm - N/A Fog Fog
5:47 AM 41.0 °F 37.1 °F 39.2 °F 93% 30.14 in 0.5 mi ESE 5.8 mph - N/A Fog Fog
5:51 AM 41.0 °F 38.0 °F 41.0 °F 100% 30.15 in 0.5 mi ESE 4.6 mph - N/A Fog Fog
6:33 AM 39.2 °F 37.0 °F 39.2 °F 100% 30.14 in 5.0 mi ESE 3.5 mph - N/A   Scattered Clouds
6:51 AM 37.9 °F 35.5 °F 37.9 °F 100% 30.16 in 8.0 mi ESE 3.5 mph - N/A   Scattered Clouds
7:28 AM 39.2 °F 37.0 °F 39.2 °F 100% 30.15 in 4.0 mi SE 3.5 mph - N/A   Overcast
7:51 AM 42.1 °F 39.2 °F 42.1 °F 100% 30.17 in 3.0 mi South 4.6 mph - N/A   Overcast
8:28 AM 44.6 °F 41.4 °F 42.8 °F 93% 30.18 in 4.0 mi ESE 5.8 mph - N/A   Scattered Clouds
8:51 AM 45.0 °F 41.8 °F 44.1 °F 97% 30.20 in 7.0 mi SE 5.8 mph - N/A   Scattered Clouds
9:51 AM 51.1 °F - 45.0 °F 80% 30.19 in 10.0 mi Calm Calm - N/A   Scattered Clouds
10:33 AM 51.8 °F - 42.8 °F 71% 30.17 in 10.0 mi North 4.6 mph - N/A   Mostly Cloudy
10:51 AM 54.0 °F - 44.1 °F 69% 30.19 in 10.0 mi NW 6.9 mph - N/A   Mostly Cloudy
11:09 AM 53.6 °F - 42.8 °F 67% 30.17 in 10.0 mi North 4.6 mph - N/A   Scattered Clouds
11:51 AM 55.9 °F - 42.1 °F 60% 30.17 in 10.0 mi WNW 6.9 mph - N/A   Scattered Clouds
12:51 PM 57.9 °F - 39.9 °F 51% 30.13 in 10.0 mi WNW 16.1 mph 19.6 mph 0.01 in   Scattered Clouds
1:51 PM 57.9 °F - 42.1 °F 56% 30.12 in 10.0 mi NW 16.1 mph - N/A   Partly Cloudy
2:29 PM 57.2 °F - 42.8 °F 59% 30.10 in 10.0 mi NW 15.0 mph - N/A   Clear
2:51 PM 57.0 °F - 42.1 °F 57% 30.11 in 10.0 mi NW 13.8 mph - N/A   Clear
3:51 PM 55.9 °F - 44.1 °F 64% 30.10 in 10.0 mi WNW 16.1 mph - N/A   Partly Cloudy
4:51 PM 53.1 °F - 46.0 °F 77% 30.09 in 10.0 mi WNW 17.3 mph - N/A   Partly Cloudy
5:51 PM 50.0 °F - 46.0 °F 86% 30.08 in 10.0 mi NNW 13.8 mph - N/A   Mostly Cloudy
6:51 PM 48.9 °F - 46.0 °F 90% 30.09 in 10.0 mi WNW 4.6 mph - N/A   Scattered Clouds
7:11 PM 48.2 °F - 46.4 °F 93% 30.07 in 10.0 mi WNW 6.9 mph - N/A   Mostly Cloudy
7:20 PM 48.2 °F - 46.4 °F 93% 30.07 in 10.0 mi WNW 8.1 mph - N/A   Mostly Cloudy
7:51 PM 48.9 °F - 46.0 °F 90% 30.08 in 10.0 mi WNW 10.4 mph - N/A   Clear
8:51 PM 46.0 °F 41.4 °F 43.0 °F 89% 30.08 in 10.0 mi WNW 9.2 mph - N/A   Clear
9:51 PM 45.0 °F 43.5 °F 42.1 °F 90% 30.07 in 10.0 mi WNW 3.5 mph - N/A   Scattered Clouds
10:51 PM 46.9 °F - 42.1 °F 83% 30.07 in 7.0 mi NW 6.9 mph - 0.01 in Rain Light Rain
11:51 PM 45.0 °F 43.5 °F 42.1 °F 90% 30.06 in 9.0 mi West 3.5 mph - 0.01 in Rain Light Rain